Theta_e
338 344 343 343 345 347 344 352 354 353 354 355 356 355 355 357 358 360 359 362 363 364 365 365 365 366 364 364 364 364 364 364 365 362 362 361 359 359 360 360 359 359 355 355 359 356 361 364 362 364 366 368 368 369 370 370 370 367 368 369 368 367 366
336 338 341 345 344 342 349 355 355 355 355 356 357 357 356 357 359 359 361 364 364 364 366 365 366 365 364 366 363 366 365 365 367 367 365 364 364 362 362 363 361 361 360 357 358 361 362 363 363 363 364 367 368 369 369 370 371 369 366 368 367 367 367
337 336 339 344 344 343 351 355 356 355 356 357 357 357 356 359 360 361 362 363 365 366 367 367 367 366 367 367 365 365 364 365 365 364 364 363 364 361 363 364 362 360 359 358 360 360 362 363 366 365 364 365 364 367 368 369 370 368 368 367 367 366 367
336 338 339 340 344 345 352 355 356 356 356 357 358 358 358 361 361 362 363 365 365 366 366 367 367 367 367 366 364 365 364 364 365 364 363 362 363 364 363 363 364 362 361 358 356 357 359 363 365 366 367 366 365 365 367 367 366 368 368 368 366 366 367
338 335 337 339 342 348 350 353 355 356 356 357 359 361 360 360 361 362 363 365 366 366 366 366 366 367 367 366 364 363 363 364 364 364 363 363 366 366 363 361 363 362 361 361 360 360 363 363 363 365 366 367 365 364 365 366 365 367 367 369 367 364 363
333 337 336 339 342 341 345 352 354 355 355 355 357 359 360 360 360 360 362 364 365 367 368 368 367 367 366 365 363 363 365 366 367 366 364 365 366 365 364 364 363 363 359 361 360 360 361 362 363 364 364 364 362 359 362 364 364 364 366 368 367 364 361
331 336 339 339 341 343 346 350 353 355 356 356 358 360 360 359 359 361 362 363 364 365 365 366 365 366 366 363 364 366 365 364 365 365 365 365 365 366 366 366 365 364 361 363 361 361 361 362 364 365 364 363 363 358 361 366 365 364 365 367 367 366 365
330 331 337 340 339 337 340 349 353 354 355 356 356 357 358 359 359 360 361 362 363 364 364 364 364 366 365 366 365 365 365 365 365 365 365 364 364 365 366 366 366 366 364 360 362 362 361 364 364 364 363 362 361 362 359 364 366 362 363 365 365 366 363
329 333 334 337 340 340 339 346 352 353 355 355 355 357 358 359 359 359 360 361 362 362 363 363 363 365 367 366 366 366 365 365 365 365 365 364 364 364 365 365 366 366 364 360 361 363 363 364 364 365 366 364 363 364 362 365 363 363 363 363 365 365 362
329 332 335 337 338 338 341 343 351 354 354 355 355 357 358 359 359 359 359 360 361 361 362 363 363 364 366 366 366 365 364 365 365 363 364 363 363 363 364 364 365 364 364 363 360 361 364 364 366 366 367 365 365 365 365 364 364 365 362 362 363 364 365
327 335 337 336 338 338 341 341 347 355 355 358 356 355 358 358 358 359 359 360 361 360 362 362 363 363 366 365 364 362 364 363 363 362 363 362 362 364 363 361 362 364 364 363 359 361 364 365 368 368 367 364 365 367 367 365 366 366 363 362 362 364 364
335 335 338 338 339 337 337 346 355 359 359 358 355 354 358 359 359 359 360 360 361 360 362 360 362 363 365 364 362 363 363 362 362 362 363 363 362 362 362 360 359 363 364 363 361 360 363 365 365 365 368 368 367 367 369 370 369 369 366 362 362 362 363
330 339 343 338 343 341 347 357 355 355 359 356 355 355 357 357 358 358 361 361 361 362 361 362 362 364 365 365 362 362 362 362 362 363 363 364 363 361 361 359 357 358 361 363 361 359 359 363 365 366 367 369 368 368 369 371 370 370 370 365 363 363 365
334 331 335 340 343 346 349 353 357 357 357 356 354 355 356 358 357 358 360 360 361 361 361 361 362 365 366 365 362 364 363 364 363 363 365 365 367 363 361 359 356 358 361 363 362 359 359 359 363 363 365 367 369 369 371 371 371 371 372 370 365 362 364
325 326 330 331 339 344 347 348 357 357 355 356 355 354 354 355 357 359 360 361 362 361 361 363 364 364 364 365 364 365 367 368 366 365 365 365 366 363 362 360 359 360 362 365 363 359 359 359 359 363 363 366 369 370 369 369 370 371 371 370 368 363 362
329 329 328 330 336 340 345 349 354 358 358 360 356 355 353 355 358 357 357 359 360 362 362 363 363 365 365 365 365 367 369 370 369 366 367 365 365 366 364 362 361 358 360 363 364 364 362 362 360 361 363 363 367 368 367 367 369 365 352 357 368 365 360
333 333 332 334 337 340 343 348 350 357 360 360 358 356 354 355 357 357 357 359 359 362 362 362 364 364 365 365 366 368 371 371 368 368 369 368 367 367 367 366 363 363 366 366 366 366 368 362 359 359 361 363 364 366 366 366 365 350 340 341 349 365 364
332 333 334 333 341 345 348 348 349 352 356 356 357 356 355 358 356 356 356 358 358 358 360 361 363 363 366 366 368 370 370 370 370 369 369 370 370 370 369 366 366 368 367 364 365 368 364 361 361 363 361 362 364 364 365 365 355 337 337 338 339 351 367
332 333 336 337 337 341 346 346 347 350 354 356 356 354 354 355 355 358 358 360 360 361 359 360 361 364 366 367 369 371 371 371 370 370 370 370 371 372 371 369 367 364 363 363 367 367 367 367 362 362 362 361 364 363 364 364 345 333 334 335 335 337 353
339 337 339 338 340 343 350 354 357 359 356 356 359 356 354 356 355 358 359 359 361 360 363 364 362 364 365 368 369 370 371 371 371 370 371 372 372 372 370 368 367 365 365 365 367 368 367 365 365 365 367 364 365 366 365 366 344 331 330 332 332 334 342
338 340 343 345 346 348 352 356 358 359 359 356 354 358 357 354 354 359 361 360 360 361 364 361 363 365 367 367 369 370 371 372 371 371 372 372 372 372 370 368 369 367 365 364 365 367 368 366 366 366 367 364 362 363 363 363 335 329 327 327 328 331 338
335 338 340 344 347 350 354 355 357 358 361 364 360 350 356 356 354 355 359 360 359 359 360 362 365 364 366 367 368 369 371 371 372 372 372 372 372 371 370 370 370 369 367 365 364 367 369 369 368 367 367 366 364 360 362 362 328 328 326 325 326 328 353
332 337 340 344 346 349 354 356 357 360 363 362 361 355 350 356 355 355 358 358 358 360 359 361 363 364 366 366 368 369 371 371 371 371 371 371 371 370 369 370 370 369 370 366 364 364 366 368 367 369 368 368 368 364 363 363 337 324 323 323 323 331 360
332 336 338 341 347 351 354 356 358 361 360 359 357 356 351 355 357 359 361 360 359 359 358 359 360 364 367 367 368 370 372 372 372 371 370 371 370 369 370 370 371 370 369 366 364 361 364 367 367 368 369 367 367 365 365 364 347 319 320 320 320 338 361
330 334 337 340 344 348 352 355 356 357 358 359 354 353 352 353 357 357 358 358 357 358 357 358 361 364 366 367 370 372 372 372 371 371 370 370 370 369 369 370 371 371 370 367 366 364 364 365 367 368 369 367 367 363 364 364 349 317 319 318 318 339 365
327 332 336 340 345 350 353 356 357 358 358 354 355 354 351 351 356 358 356 355 357 357 357 359 362 366 369 370 370 371 372 371 372 372 370 371 371 371 371 371 370 370 369 369 367 364 362 361 363 365 366 367 366 366 366 365 365 337 316 316 316 325 363
327 331 334 338 342 344 350 354 355 355 357 357 358 352 351 352 355 358 361 361 359 358 358 362 365 369 371 370 369 370 371 371 371 371 370 371 371 370 370 369 369 369 369 367 365 365 363 360 361 361 364 365 366 365 365 365 367 347 315 316 316 319 336
326 331 333 336 339 343 349 353 357 357 355 357 355 353 352 357 361 363 364 360 358 360 361 364 367 369 370 370 368 369 369 370 372 372 370 372 372 370 369 370 370 369 368 367 367 367 365 366 363 361 361 364 365 366 365 366 356 367 319 317 314 317 321
324 326 328 332 336 341 344 349 354 358 355 353 353 356 357 358 363 365 363 360 363 363 365 366 367 369 370 370 369 369 369 370 371 369 368 369 371 370 369 370 369 369 370 369 368 367 365 366 364 363 362 364 365 367 368 372 370 345 338 316 314 314 317
325 326 328 331 333 339 343 349 355 357 359 354 357 358 358 360 364 363 362 362 366 366 367 368 368 370 370 369 368 368 368 368 369 370 370 370 371 370 370 369 369 368 369 369 366 364 365 364 365 363 361 361 361 365 366 372 370 347 334 328 313 313 314
322 325 327 328 331 338 343 350 355 357 360 358 360 360 362 360 362 363 363 365 368 368 366 367 368 368 369 368 367 368 367 368 369 370 368 369 370 369 367 369 368 367 369 369 366 365 364 364 365 364 363 361 362 363 365 366 365 368 343 326 317 314 313
320 326 326 328 331 335 340 349 357 358 360 362 360 362 361 364 364 364 364 366 367 368 368 367 368 368 369 368 367 366 368 367 368 368 368 369 369 370 369 368 366 366 367 366 364 365 365 364 362 360 362 360 362 361 362 366 366 369 363 334 325 320 315
319 325 325 326 329 334 338 345 350 355 357 359 362 361 359 362 364 367 368 368 366 366 369 369 369 367 368 367 366 367 366 367 365 366 366 368 368 369 368 368 367 367 365 365 363 364 363 363 361 360 359 361 361 363 363 365 367 366 366 358 349 344 335
319 325 326 327 329 333 335 340 346 352 356 357 360 363 362 362 363 365 366 364 366 364 369 369 369 367 369 368 367 365 365 366 365 366 364 365 366 365 366 367 368 365 365 364 363 362 361 360 358 358 360 361 362 363 364 364 365 366 365 366 359 355 350
321 325 325 325 328 333 335 339 344 348 350 355 360 364 365 365 365 366 366 367 368 370 369 369 371 369 370 368 366 365 367 367 365 365 364 365 366 366 379 374 366 366 368 369 369 367 365 363 364 363 364 364 364 362 363 365 364 367 346 372 340 356 359
320 324 325 326 328 332 335 337 340 343 345 349 358 362 362 364 367 369 365 367 367 369 369 370 367 368 368 368 367 366 365 365 363 365 364 364 364 358 338 309 299 315 378 371 327 314 309 335 370 373 373 366 369 371 365 365 372 316 314 320 326 329 332
319 322 325 325 326 328 332 333 336 338 340 344 352 358 361 363 363 365 366 368 369 369 368 368 366 363 365 364 364 362 364 364 363 365 367 368 365 366 358 354 340 301 297 308 313 305 298 297 298 303 312 358 370 342 317 318 309 307 309 309 309 309 314
322 324 327 326 326 327 329 331 331 334 337 341 348 350 353 358 360 362 365 369 372 369 368 368 366 363 363 364 364 366 368 365 366 366 366 367 368 370 364 363 357 346 307 297 301 299 295 296 296 296 301 301 317 356 354 317 305 305 306 306 307 308 306
Wind_Speed
21 24 21 18 19 19 21 22 22 21 21 21 21 22 22 20 19 19 19 20 21 21 20 20 19 18 19 16 17 15 14 13 12 12 12 11 11 11 12 11 11 10 10 10 9 9 9 9 8 9 8 9 8 8 7 7 6 5 5 4 4 4 4
17 13 12 13 16 19 22 21 22 20 21 21 20 22 21 22 20 20 19 21 22 22 22 21 20 19 19 17 16 17 16 15 14 12 12 11 10 10 11 11 10 10 10 9 8 9 9 10 9 9 9 9 9 8 8 8 7 6 6 6 6 5 4
19 18 18 17 17 18 20 20 21 20 21 21 21 21 22 21 21 22 21 21 22 22 21 21 21 19 18 17 17 17 17 15 15 15 15 13 14 14 12 11 11 11 11 11 9 9 9 10 10 9 10 9 9 9 8 8 8 7 7 6 6 6 5
16 17 21 23 22 22 20 20 22 20 20 22 23 24 24 23 23 20 20 22 23 22 23 21 21 20 19 18 18 17 17 17 16 15 15 14 14 14 12 12 11 11 11 11 11 10 9 9 11 10 10 9 9 10 9 9 8 8 7 7 6 6 6
21 21 18 18 16 14 16 19 20 21 22 23 23 22 23 23 22 21 20 21 23 24 24 24 20 19 17 18 15 15 17 18 17 16 15 14 13 13 13 14 13 13 11 12 11 10 9 10 11 11 10 10 10 10 10 9 9 8 8 8 7 7 7
21 22 20 18 16 16 17 20 22 24 23 23 24 23 23 24 22 24 22 22 22 21 21 21 21 19 19 19 17 16 17 17 16 15 15 14 14 14 14 14 14 14 13 12 12 11 11 11 11 12 12 11 11 11 11 11 10 10 9 8 7 7 7
17 18 17 17 18 16 15 19 22 22 22 21 21 20 20 21 23 23 22 22 23 23 24 24 22 21 18 17 17 18 19 19 17 18 16 16 15 14 14 14 13 13 12 12 12 12 13 12 11 12 12 12 11 12 10 10 10 9 8 8 8 7 7
17 17 20 19 19 18 17 21 20 21 20 18 19 21 23 22 21 22 23 22 22 22 22 23 22 20 19 18 18 20 19 19 18 17 15 17 16 15 15 14 13 12 12 13 12 12 13 13 12 12 12 12 12 11 11 10 10 11 10 10 9 9 8
17 15 18 20 20 20 21 21 19 19 21 21 22 22 23 22 22 22 24 23 22 22 23 23 22 20 18 18 18 20 19 18 18 17 18 18 16 17 16 15 15 13 13 13 13 13 12 13 13 12 12 12 11 11 11 10 11 11 10 10 10 10 10
14 15 16 17 18 17 17 15 15 16 19 19 18 19 21 20 20 20 20 21 22 24 24 22 20 20 20 19 20 21 20 19 18 20 19 19 17 18 17 16 15 14 14 14 13 13 13 13 13 13 12 12 11 12 11 12 12 11 11 11 11 11 11
14 15 14 18 16 15 13 15 16 15 17 17 18 20 20 20 20 21 21 22 22 22 23 21 20 20 20 21 22 22 20 21 20 20 20 19 17 19 18 17 16 14 15 14 14 14 13 12 13 12 13 13 13 12 12 12 12 12 12 12 11 12 12
5 6 15 15 17 17 17 14 12 13 16 16 19 19 18 19 20 20 20 22 21 21 21 21 20 21 20 20 21 21 22 21 21 21 21 20 19 19 18 17 16 15 14 15 15 14 14 14 13 13 14 13 13 13 13 12 12 12 12 13 13 12 12
6 4 4 7 4 6 9 14 16 17 17 19 20 19 18 19 19 19 18 19 20 19 20 20 20 19 20 21 21 20 22 22 21 20 20 19 18 17 17 17 17 17 16 15 15 15 15 15 15 13 14 14 13 14 13 13 13 12 12 12 12 12 12
5 3 5 6 7 6 6 9 14 15 17 18 18 18 18 19 19 18 18 19 18 19 19 18 19 19 20 20 19 19 22 21 21 20 18 18 16 16 17 17 16 16 15 14 15 16 16 16 15 14 14 14 14 13 13 13 12 12 12 12 12 12 12
2 8 7 6 5 7 10 12 12 16 18 18 19 20 19 18 18 17 17 18 18 18 20 19 18 19 20 19 19 19 19 18 18 17 17 17 16 17 16 16 16 14 14 14 15 14 15 15 15 15 14 14 14 13 13 13 12 12 12 12 13 12 13
4 7 6 3 4 9 7 9 12 13 15 15 17 18 19 17 17 19 19 19 20 18 18 17 18 18 19 20 19 18 17 17 15 16 17 17 17 16 16 16 16 16 16 15 15 14 13 13 13 15 15 14 14 14 12 12 11 12 16 14 12 13 12
8 6 7 7 12 11 2 7 9 12 13 15 16 17 16 15 17 18 20 19 19 17 18 19 18 19 20 19 18 17 17 16 16 16 16 16 16 16 15 15 14 14 13 14 14 13 12 13 15 15 14 15 14 15 13 12 11 15 16 16 16 13 12
9 8 8 9 11 10 10 7 8 11 14 16 17 18 17 14 17 18 19 19 19 20 19 19 19 20 18 18 17 17 18 17 17 16 16 16 16 16 15 15 14 13 14 15 15 13 14 15 14 13 14 14 15 15 14 13 13 17 18 17 17 14 11
8 10 10 10 11 12 12 9 9 8 13 14 15 16 18 18 17 17 18 18 18 18 19 20 20 18 17 18 17 17 17 17 17 17 17 17 17 16 15 15 15 16 16 17 15 14 13 13 15 15 14 13 14 14 15 13 14 17 19 19 18 17 13
8 8 11 10 10 11 9 9 8 9 10 10 15 17 17 17 18 17 17 16 16 18 16 16 18 18 18 17 17 17 17 17 17 18 17 17 17 16 16 16 16 17 16 15 14 14 14 15 15 14 14 13 13 13 13 15 15 19 19 19 19 18 14
8 9 9 9 10 10 11 11 12 11 12 13 12 15 16 16 17 16 16 17 18 18 16 18 17 17 17 17 17 17 17 17 17 17 17 17 17 16 17 17 15 16 15 15 15 14 14 14 14 13 14 15 14 13 14 12 16 20 20 19 20 19 14
11 11 11 11 12 12 12 12 13 13 11 10 12 13 15 17 18 17 17 18 19 19 19 17 16 17 18 18 19 19 18 18 17 17 17 17 17 17 17 16 15 15 14 13 14 13 13 13 13 14 15 15 15 15 14 12 17 20 21 20 19 18 11
13 12 13 14 15 15 14 14 14 13 12 11 12 14 14 16 18 18 18 19 19 19 19 18 17 18 19 19 19 18 18 18 18 17 17 17 17 17 17 16 16 15 13 14 14 14 14 14 14 12 14 15 14 15 12 13 14 19 20 20 19 14 11
14 14 14 15 16 16 15 15 14 13 13 12 12 14 14 15 17 16 16 18 18 19 20 20 20 19 19 19 20 19 18 18 18 18 17 17 18 18 16 16 14 15 14 14 14 15 15 13 13 13 13 15 15 16 14 13 13 20 19 20 20 17 13
15 15 15 16 17 17 17 16 16 16 14 15 13 13 16 16 18 18 18 19 20 21 21 21 21 20 21 20 19 18 18 18 18 18 18 18 18 17 16 16 15 14 13 13 13 13 12 12 12 12 13 14 16 14 16 14 12 20 20 21 21 17 12
17 17 18 17 17 17 18 19 17 16 14 13 13 13 15 17 17 18 18 20 20 21 21 21 21 20 18 17 18 18 17 17 18 17 18 18 16 15 15 14 13 14 14 13 12 12 13 13 13 14 13 13 14 12 15 15 10 15 21 21 21 22 14
16 16 17 18 17 19 17 17 15 15 14 11 11 13 14 15 17 16 16 17 18 20 21 20 18 17 17 17 18 18 19 17 18 19 18 16 16 15 14 14 14 14 14 14 13 12 12 14 13 13 12 13 13 13 15 14 13 13 21 21 23 23 18
18 18 18 17 19 17 16 16 19 18 13 11 11 11 13 14 13 14 15 17 19 20 18 16 16 17 17 18 19 18 18 17 16 17 15 15 14 14 14 13 14 13 14 13 12 13 13 12 11 12 12 12 12 12 13 12 16 10 19 22 22 22 22
18 18 18 18 18 19 18 17 18 18 12 10 10 10 12 13 12 13 15 17 17 15 14 15 16 17 17 17 17 17 17 16 17 16 13 14 15 15 15 13 14 13 13 12 12 12 12 12 11 11 11 11 10 10 11 10 11 14 14 19 21 22 22
16 18 18 17 17 17 20 16 17 13 11 10 9 9 11 11 11 12 15 17 13 12 12 14 15 15 16 16 16 16 16 16 17 15 13 15 15 15 14 14 13 12 11 12 12 12 12 11 11 11 11 11 11 11 11 9 8 11 18 17 21 20 22
16 18 17 17 16 17 17 16 18 12 10 10 9 8 9 9 11 13 15 14 12 12 13 14 15 15 15 16 16 15 15 15 14 15 14 14 15 14 14 14 14 12 12 12 12 12 11 12 11 11 11 10 11 10 10 11 12 10 15 22 21 22 22
16 17 17 16 16 19 18 17 16 9 6 9 6 9 7 9 11 13 13 12 12 13 12 14 14 14 14 15 15 15 15 15 15 15 14 15 13 13 13 13 13 12 12 12 12 11 11 11 11 11 11 11 11 10 10 10 9 9 9 14 19 20 23
16 16 16 17 16 18 16 15 14 14 7 3 5 4 8 9 10 11 11 12 13 14 13 14 14 14 13 14 14 14 14 15 14 13 14 14 12 12 12 12 12 12 12 13 12 12 11 12 11 11 11 11 11 10 10 10 10 10 9 10 9 9 11
17 16 16 15 14 15 14 14 14 14 11 4 2 2 4 7 9 10 11 14 15 15 14 14 14 14 14 14 13 13 13 13 14 14 13 14 13 13 13 12 13 13 13 13 13 13 13 12 12 12 12 12 11 11 10 11 11 11 12 9 10 9 9
16 14 14 16 15 14 12 12 12 14 14 10 6 4 3 4 6 9 11 12 13 12 14 13 14 13 14 13 13 13 12 12 12 13 12 12 13 9 3 6 11 13 11 11 11 11 11 12 9 11 10 12 11 11 12 10 12 11 8 9 13 12 11
16 13 13 13 12 14 13 14 14 14 14 12 11 5 2 3 3 2 9 10 11 12 14 12 13 14 14 13 13 13 13 12 13 13 12 13 12 8 6 11 14 10 2 7 8 11 11 5 6 6 8 10 10 6 10 10 5 9 13 14 18 12 12
16 13 12 14 14 15 15 14 15 15 15 14 12 8 6 5 3 1 2 6 8 11 12 13 12 13 13 13 13 13 13 13 13 12 10 11 11 9 9 7 8 14 15 11 8 10 12 12 10 11 11 4 5 9 13 15 14 14 14 15 15 15 14
15 13 10 11 12 14 14 15 15 16 16 12 12 12 11 8 7 6 2 2 4 9 10 12 11 12 12 12 11 11 11 11 12 12 12 11 12 10 10 8 8 6 12 13 10 11 11 11 11 11 10 11 9 6 4 5 11 14 14 14 14 14 14
Wind_Direction
185 184 196 191 199 205 197 192 184 182 182 181 183 187 185 184 184 180 181 180 181 179 179 178 179 179 182 183 182 185 188 189 193 195 198 201 203 201 200 201 202 204 205 204 203 206 202 209 203 196 196 194 202 200 199 198 200 204 204 207 221 243 229
185 197 204 192 195 215 204 186 182 182 183 182 184 186 186 185 184 183 182 181 181 179 179 179 179 180 182 182 183 184 185 189 191 193 196 199 202 204 203 202 204 202 207 208 201 201 201 196 203 195 198 191 202 200 197 197 201 206 207 198 209 213 221
184 185 196 200 198 205 206 185 184 185 184 183 184 185 186 185 185 185 181 180 181 181 180 180 180 180 180 181 182 184 185 186 191 194 195 196 198 203 201 202 204 203 204 206 207 197 198 196 196 199 198 194 199 200 200 199 199 204 210 208 204 210 217
188 194 183 198 194 203 199 188 184 187 187 187 186 186 186 185 185 184 184 181 180 180 181 181 180 180 179 180 182 183 185 188 193 195 197 199 197 201 200 199 202 204 200 203 203 205 195 194 193 199 196 195 195 199 201 202 199 201 206 205 212 213 217
189 195 195 185 204 203 200 187 185 187 189 191 189 188 187 185 183 184 185 184 183 182 182 181 181 179 179 179 180 183 185 187 191 195 196 198 198 197 202 201 197 204 200 199 200 198 197 189 196 194 194 198 196 197 200 198 203 199 203 205 215 213 216
186 188 191 185 186 194 205 199 188 189 190 190 188 188 189 185 185 186 185 184 186 184 182 181 182 179 179 180 182 182 182 187 191 193 194 195 196 196 200 201 197 200 198 197 195 194 196 196 196 192 195 196 202 199 198 196 200 200 198 205 212 218 221
192 185 180 182 181 191 207 208 194 190 190 191 189 187 188 188 188 187 185 185 185 183 183 184 184 180 180 180 182 180 183 186 189 191 193 196 195 198 197 198 200 196 200 191 199 192 193 198 197 193 198 199 201 205 196 196 197 195 197 199 205 217 223
205 191 182 182 190 184 195 215 198 190 187 188 188 186 190 190 189 188 188 186 186 185 187 185 184 182 178 179 180 182 183 185 186 189 193 195 194 197 195 198 198 195 197 194 195 196 195 196 197 199 197 202 199 203 202 195 196 196 196 198 203 209 210
201 197 189 184 189 186 194 207 199 189 185 187 189 188 190 190 189 190 189 187 185 186 188 187 185 181 178 178 179 182 183 184 185 187 191 194 194 196 196 195 195 195 195 198 192 196 200 193 201 197 198 203 199 195 200 193 195 202 200 199 201 206 215
189 192 192 192 195 202 186 198 194 188 184 187 190 187 188 192 193 192 191 189 187 189 187 187 184 181 179 180 181 182 181 184 186 188 190 195 196 196 198 194 194 193 195 197 197 192 197 196 198 195 196 201 201 195 197 193 197 200 203 203 202 206 211
199 187 193 192 194 206 188 190 185 188 184 186 188 189 188 191 192 192 191 191 190 190 186 185 184 182 181 183 182 181 182 185 187 189 192 195 196 197 199 198 194 191 195 195 202 194 191 197 196 194 194 199 198 196 196 196 197 199 204 203 203 206 210
35 234 180 186 191 196 199 182 175 177 182 185 190 190 188 189 192 195 193 194 191 187 185 185 183 182 181 184 183 183 185 186 188 191 192 194 197 197 198 200 197 190 193 196 200 198 194 193 197 194 194 198 198 197 196 197 198 199 204 205 205 206 211
183 81 85 157 192 197 191 165 176 181 180 186 190 190 189 191 192 194 194 195 193 190 186 184 183 181 181 184 185 184 186 187 190 191 192 194 197 199 198 202 200 196 193 196 198 200 200 193 197 196 194 196 198 197 195 196 198 199 201 208 207 204 208
8 142 166 161 190 197 197 168 169 177 183 187 190 193 191 191 192 194 191 193 195 191 187 184 183 180 180 184 186 185 186 188 189 190 191 191 195 200 199 201 201 198 192 193 197 201 203 199 195 196 195 194 197 198 195 196 199 199 200 204 208 206 205
204 172 166 159 164 187 192 190 181 182 187 189 191 193 193 191 192 192 190 191 194 194 190 185 182 181 181 183 186 186 187 185 187 188 188 191 192 198 200 199 200 197 193 192 199 201 202 206 198 194 197 194 195 198 198 198 201 200 198 200 204 209 207
8 352 66 54 156 176 185 201 188 188 188 193 195 195 196 191 191 192 191 191 191 195 190 181 183 181 182 184 186 184 183 183 183 184 186 188 190 194 197 198 199 198 196 192 198 200 202 204 203 198 196 196 195 199 201 202 203 198 195 196 200 204 209
16 358 11 357 3 344 257 198 203 193 193 194 198 199 199 195 193 194 195 191 192 191 188 184 184 185 185 184 184 181 180 181 183 182 183 184 187 189 193 197 198 198 192 194 196 201 198 203 204 206 198 198 198 199 203 204 205 186 189 195 203 204 206
356 349 344 345 338 329 314 293 221 201 204 201 202 200 201 199 194 194 197 191 192 192 189 187 185 187 186 183 182 179 179 181 180 180 179 181 184 184 190 195 196 197 193 196 195 199 200 201 204 206 205 200 202 203 206 208 198 177 186 192 198 208 208
351 330 341 338 323 320 329 320 300 251 211 214 210 206 205 200 198 195 197 193 191 190 190 189 186 184 183 184 183 181 180 178 180 179 178 180 180 181 186 191 194 196 196 197 196 195 201 200 201 203 209 206 202 207 207 213 185 177 184 189 194 203 217
350 326 321 316 308 301 305 311 299 299 290 239 216 217 212 206 200 197 196 192 186 191 192 186 185 183 185 184 183 181 179 179 178 179 179 178 178 180 184 188 193 196 195 196 195 196 200 202 200 202 204 209 209 207 212 216 177 177 182 188 192 198 206
344 331 315 301 303 311 314 305 287 276 270 281 260 220 214 209 204 193 192 190 187 189 190 189 186 181 184 184 182 181 180 180 180 179 177 177 178 180 184 187 191 195 196 197 196 196 199 202 202 203 204 206 210 210 213 219 165 176 180 187 191 195 200
336 332 318 316 311 304 303 303 306 299 291 278 274 252 214 209 204 196 191 191 188 188 189 187 184 181 183 184 184 183 181 179 179 179 178 178 180 181 183 186 188 192 196 200 200 199 196 202 206 203 204 205 208 214 213 213 164 178 179 183 189 185 196
335 329 325 315 313 311 307 300 288 287 280 262 255 257 229 207 201 196 189 190 189 186 188 185 185 184 183 186 184 183 182 180 180 180 180 179 181 183 184 184 187 190 193 198 202 199 199 201 205 204 204 205 207 214 214 219 174 178 181 181 180 172 199
334 331 326 323 313 307 303 301 303 299 295 277 248 246 243 211 198 190 186 189 186 185 187 187 188 186 184 185 184 182 181 182 181 181 181 182 184 184 185 185 185 189 190 198 203 204 203 203 205 206 207 207 209 209 211 219 175 177 177 179 174 179 195
335 330 328 321 316 309 312 313 309 301 289 281 258 236 238 221 196 189 187 189 189 186 187 189 187 187 185 185 182 180 180 181 182 182 182 185 186 186 185 185 185 187 189 198 204 210 207 205 206 208 209 211 214 203 209 220 184 175 175 177 177 183 197
337 333 330 325 316 319 318 310 300 294 284 267 253 238 230 218 196 189 189 190 191 187 190 190 189 188 184 180 179 181 181 182 182 183 184 184 185 186 185 184 184 186 189 196 201 206 213 208 212 213 212 212 215 209 209 218 206 173 175 177 180 187 193
334 332 327 325 323 322 313 309 302 294 287 273 251 231 227 212 199 186 185 189 193 191 193 190 184 181 178 180 181 181 182 182 183 184 185 184 185 184 185 186 187 187 188 195 199 203 209 214 214 216 214 217 216 218 214 213 214 174 179 179 182 190 194
337 335 331 328 325 321 321 315 309 296 279 262 250 226 219 211 197 178 179 188 198 195 193 183 180 180 178 179 182 182 182 183 182 183 183 183 182 183 187 186 189 188 188 194 196 201 204 209 215 217 218 219 217 220 221 206 206 177 184 181 185 187 197
337 337 330 327 327 326 322 317 309 299 279 259 242 214 220 210 188 171 178 191 196 195 188 180 180 179 177 178 180 181 181 181 178 180 183 182 181 183 183 183 187 188 188 193 192 196 199 202 209 214 216 216 213 216 217 213 200 176 170 187 185 188 197
336 339 333 329 327 325 323 315 314 298 282 265 243 206 216 210 180 172 182 195 190 195 187 178 178 177 176 178 180 179 179 178 178 180 182 178 178 181 181 182 186 185 187 187 190 192 195 200 203 210 215 216 216 216 216 212 219 175 164 177 190 192 196
329 337 332 330 320 321 324 323 319 298 292 274 224 202 204 204 183 175 186 191 194 193 188 177 176 176 178 178 178 177 178 175 176 179 180 179 178 181 182 183 182 185 185 186 191 193 194 197 198 203 211 218 220 218 218 220 220 220 170 173 185 192 198
325 337 337 336 333 337 332 327 329 294 283 308 258 196 205 198 184 182 193 194 192 190 181 175 175 177 177 178 177 177 175 175 176 176 180 176 179 181 183 183 184 186 185 187 191 194 196 198 200 204 208 215 219 221 220 216 219 220 177 177 183 192 198
328 336 341 336 331 328 330 335 343 343 309 277 314 225 193 195 194 198 196 199 191 186 174 177 175 175 176 177 178 178 178 175 175 173 175 177 178 181 184 185 186 188 187 190 193 195 198 199 201 202 205 209 215 215 219 220 219 218 210 171 183 189 196
331 337 342 336 324 321 326 344 348 355 353 351 314 281 236 210 214 206 202 198 193 186 176 175 173 175 177 177 178 178 177 176 166 169 175 179 182 182 185 187 192 191 189 191 193 196 197 199 199 202 203 206 206 212 213 216 219 217 219 180 177 185 178
333 334 338 335 329 326 327 340 356 4 1 2 348 16 337 243 217 201 197 190 190 178 175 176 175 176 176 176 176 176 174 175 169 176 177 175 186 176 148 206 197 192 189 194 200 202 199 198 192 198 207 207 205 208 217 219 221 221 237 183 165 179 182
334 333 335 332 327 331 334 347 356 359 1 2 4 31 354 24 21 219 189 188 196 180 181 177 181 183 183 179 176 174 173 176 174 179 183 178 176 118 96 61 56 31 198 172 47 57 46 73 192 193 212 211 208 214 221 230 215 87 87 129 158 170 166
330 329 339 339 339 342 348 353 354 2 4 1 351 18 37 53 51 20 209 214 200 187 184 181 182 188 185 182 182 174 174 175 174 176 186 180 171 144 133 117 56 46 47 56 71 75 78 72 62 50 36 17 190 62 65 101 112 106 107 110 118 124 132
329 340 344 341 347 344 349 358 0 1 360 352 350 10 9 30 40 31 313 273 244 198 194 186 189 193 186 184 178 164 168 176 170 172 184 184 176 150 157 154 144 94 46 44 55 67 72 73 63 54 50 41 50 105 89 65 105 121 119 120 122 121 126